Tiempo atmosférico en la estación meteorológica de Tazacorte, Santa Cruz de Tenerife (30 m.)



Fecha
DESCASC
Temp. máxima en grados centígrados (hora)
DESCASC
Temp. mínima en grados centígrados (hora)
DESCASC
Temp. media en grados centígrados
DESCASC
Racha de viento máxima en m/sg (hora)
DESCASC
Velocidad máxima media en intervalos de 10 minutos(hora)
DESCASC
Precipitaciones diarias en mm
DESCASC
Precipitaciones de 00:00 a 06:00 en mm
DESCASC
Precipitaciones de 06:00 a 12:00 en mm
DESCASC
Precipitaciones de 12:00 a 18:00 en mm
DESCASC
Precipitaciones de 18:00 a 24:00 en mm
DESCASC
22-11-2020 26.1 (12:40) 19.2 (07:00) 22.7 4.17 (06:00) 2.5 (05:30) 0 0 0 0 0
21-11-2020 25.5 (11:10) 19.7 (04:10) 22.6 13.33 (14:00) 5 (12:10) 0 0 0 0 0
20-11-2020 23.4 (15:00) 18.2 (07:20) 20.8 6.39 (12:40) 3.33 (12:20) 0 0 0 0 0
19-11-2020 24.2 (13:40) 19.1 (00:00) 21.7 3.89 (02:20) 2.5 (01:20) 0 0 0 0 0
18-11-2020 25.7 (15:30) 20.4 (00:00) 23.1 6.11 (15:10) 3.33 (15:20) 0 0 0 0 0
17-11-2020 26.9 (15:50) 18 (00:00) 22.4 4.17 (23:20) 2.22 (13:20) 0 0 0 0 0
16-11-2020 23.7 (14:10) 18.5 (00:00) 21.1 4.44 (15:10) 2.22 (15:00) 0 0 0 0 0
15-11-2020 24.6 (14:10) 20.5 (00:00) 22.6 4.44 (00:50) 1.67 (00:50) 0.9 0.8 0.1 0 0
14-11-2020 25.6 (15:00) 19.1 (00:00) 22.4 5.83 (20:40) 3.33 (20:40) 0.9 0 0 0 0.9
13-11-2020 25.3 (12:20) 20.4 (00:00) 22.8 9.72 (12:20) 4.72 (12:30) 0 0 0 0 0
12-11-2020 23.5 (12:00) 19.4 (00:00) 21.4 3.89 (01:10) 2.22 (01:10) 0 0 0 0 0
11-11-2020 23.3 (12:50) 18.4 (00:00) 20.8 4.44 (14:40) 2.5 (04:20) 0 0 0 0 0
10-11-2020 23.7 (12:30) 18.8 (00:00) 21.3 6.39 (18:40) 3.33 (18:40) 0 0 0 0 0
09-11-2020 23.2 (15:10) 17.8 (00:00) 20.5 5 (12:50) 3.06 (06:20) 0 0 0 0 0
08-11-2020 24 (14:30) 17.9 (00:00) 20.9 5 (23:30) 3.06 (23:30) 0 0 0 0 0
07-11-2020 23.4 (13:50) 16.9 (00:00) 20.1 5 (08:00) 3.61 (06:10) 0 0 0 0 0
06-11-2020 22.3 (15:10) 17 (00:00) 19.6 7.5 (05:50) 3.61 (22:20) 6.6 5.5 1.1 0 0
05-11-2020 21.7 (13:50) 17.4 (00:00) 19.6 6.39 (10:30) 3.33 (10:40) 0.3 0 0 0.3 0
04-11-2020 23.5 (13:10) 18.7 (00:00) 21.1 10.28 (00:20) 3.89 (08:10) 5.3 0 1.9 0 3.4
03-11-2020 25.8 (13:10) 20.4 (00:00) 23.1 10.28 (03:50) 3.33 (16:40) 0 0 0 0 0
02-11-2020 26.8 (02:10) 21.4 (00:00) 24.1 7.22 (13:40) 4.44 (13:40) 0 0 0 0 0
01-11-2020 31.9 (14:30) 22.3 (00:00) 27.1 12.78 (07:40) 4.44 (01:50) 0 0 0 0 0
31-10-2020 27.8 (22:30) 19.4 (00:00) 23.6 7.22 (23:10) 2.5 (22:20) 0 0 0 0 0
30-10-2020 25 (15:10) 19 (00:00) 22 4.72 (02:50) 3.33 (02:50) 0 0 0 0 0
29-10-2020 24.2 (12:50) 19.6 (00:00) 21.9 4.72 (22:00) 2.78 (22:00) 0 0 0 0 0
28-10-2020 24.8 (13:00) 19.1 (00:00) 21.9 5.83 (21:00) 3.06 (07:00) 0 0 0 0 0
27-10-2020 25.6 (13:40) 19 (00:00) 22.3 4.72 (23:50) 3.33 (04:00) 0 0 0 0 0
26-10-2020 25.3 (14:40) 19.1 (00:00) 22.2 3.89 (08:10) 2.5 (08:10) 0 0 0 0 0

Gráficas

Temp. máximas Temp. mínimas Temp. medias Precipitaciones Rachas de viento máximas Velocidades máximas media en intervalos de 10 minutos

Datos horarios

Fecha y hora oficial Temperatura (ºC) Velocidad del viento (km/h) Dirección del viento Racha (km/h) Dirección de racha Precipitación (mm) Presión (hPa) Tendencia (hPa) Humedad (%)
2020-11-24 23:00:00 20.3 4 Nordeste 15 Nordeste 0 1015.8 0.9 62
2020-11-24 22:00:00 20.6 8 Nordeste 15 Nordeste 0 1015.9 1.3 63
2020-11-24 21:00:00 20.8 3 Nordeste 9 Nordeste 0 1015.6 1.4 65
2020-11-24 20:00:00 21.1 5 Nordeste 9 Este 0 1014.9 -- 66
2020-11-24 19:00:00 21.2 4 Sudeste 9 Sudeste 0 1014.6 -- 71
2020-11-24 18:00:00 22.7 3 Sudoeste 5 Oeste 0 1014.2 -- 67
2020-11-24 17:00:00 23.5 3 Sudoeste 9 Oeste 0 1013.9 -- 56
2020-11-24 16:00:00 24.1 5 Sudoeste 11 Oeste 0 1013.5 -- 55
2020-11-24 15:00:00 24.1 3 Sudoeste 10 Sudoeste 0 1013.8 -- 56
2020-11-24 14:00:00 24.5 4 Sudoeste 14 Sudoeste 0 1014.3 -- 64
2020-11-24 13:00:00 25.1 4 Sudoeste 10 Sudoeste 0 1014.8 -- 45
2020-11-24 12:00:00 24.8 4 Sur 9 Sudeste 0 1015.6 -- 51
2020-11-24 11:00:00 24.2 5 Sur 9 Sur 0 1015.9 -- 56
2020-11-24 10:00:00 23.4 0 Calma 8 Este 0 1015.3 -- 41
2020-11-24 09:00:00 22 6 Este 12 Este 0 1014.7 -- 37
2020-11-24 08:00:00 21.6 8 Este 14 Este 0 1013.8 -- 32
2020-11-24 07:00:00 21.5 9 Este 14 Este 0 1013.3 -- 32
2020-11-24 06:00:00 21.5 10 Este 14 Este 0 1012.7 -- 32
2020-11-24 05:00:00 21.8 8 Este 17 Este 0 1012.9 -- 33
2020-11-24 04:00:00 21.6 10 Este 18 Este 0 1013.4 -- 36
2020-11-24 03:00:00 19.9 5 Este 9 Este 0 1014 -- 50
2020-11-24 02:00:00 20 7 Este 10 Nordeste 0 1014.1 -- 53
2020-11-24 01:00:00 20.2 5 Nordeste 10 Este 0 1014.2 -- 55
2020-11-24 00:00:00 20.5 4 Nordeste 12 Nordeste 0 1014.3 -- 54
2020-11-23 23:00:00 20.8 7 Este 11 Sudeste 0 1014.4 -- 54
2020-11-23 22:00:00 21.2 7 Sudeste 13 Este 0 1014.4 -- 57
2020-11-23 21:00:00 21.4 8 Sudeste 12 Sudeste 0 1013.9 -- 56
2020-11-23 20:00:00 21.5 0 Calma 11 Norte 0 1013.3 -- 58
2020-11-23 19:00:00 22.4 6 Norte 14 Norte 0 1012.5 -- 53
2020-11-23 18:00:00 22.8 9 Noroeste 18 Noroeste 0 1012 -- 59
2020-11-23 17:00:00 23.9 10 Noroeste 23 Norte 0 1011.8 -- 52
2020-11-23 16:00:00 24.9 9 Norte 27 Noroeste 0 1011.6 -- 47
2020-11-23 15:00:00 25.4 11 Noroeste 23 Noroeste 0 1011.4 -- 45
2020-11-23 14:00:00 25.3 8 Noroeste 20 Noroeste 0 1012.1 -- 52
2020-11-23 13:00:00 24.2 8 Noroeste 13 Noroeste 0 1013.1 -- 66
2020-11-23 12:00:00 23.7 6 Noroeste 10 Noroeste 0 1013.6 -- 68
2020-11-23 11:00:00 22.8 0 Calma 11 Sur 0 1014.1 -- 72
2020-11-23 10:00:00 22 6 Sur 12 Sur 0 1014 -- 80
2020-11-23 09:00:00 19.7 5 Este 10 Este 0 1013.2 -- 64
2020-11-23 08:00:00 19.1 5 Este 11 Este 0 1012.5 -- 51
2020-11-23 07:00:00 19.2 6 Este 13 Este 0 1011.9 -- 48
2020-11-23 06:00:00 19.1 6 Este 12 Este 0 1011.5 -- 59
2020-11-23 05:00:00 19.4 8 Este 11 Este 0 1011.9 -- 60
2020-11-23 04:00:00 19.5 7 Este 12 Este 0 1011.8 -- 60
2020-11-23 03:00:00 19.9 8 Este 11 Este 0 1012.1 -- 57
2020-11-23 02:00:00 20.2 6 Este 12 Este 0 1012.2 -- 47
2020-11-23 01:00:00 20.7 6 Este 11 Este 0 1012.6 -- 47
2020-11-23 00:00:00 21.2 6 Este 10 Este 0 1012.9 -- 45
2020-11-22 23:00:00 21.3 3 Este 12 Este 0 1012.9 -- 44
2020-11-22 22:00:00 21.7 6 Este 10 Este 0 1012.8 -- 43
2020-11-22 21:00:00 22.5 4 Este 10 Este 0 1012.5 -- 42
2020-11-22 20:00:00 22.9 7 Nordeste 9 Este 0 1012.1 -- 42
2020-11-22 19:00:00 22.9 2 Norte 6 Norte 0 1011.8 -- 45
2020-11-22 18:00:00 23.6 0 Calma 5 Noroeste 0 1011.4 -- 49
2020-11-22 17:00:00 24.2 3 Noroeste 7 Noroeste 0 1011 -- 49
2020-11-22 16:00:00 24.9 3 Noroeste 10 Oeste 0 1010.6 -- 45
2020-11-22 15:00:00 25.1 4 Noroeste 10 Noroeste 0 1010.6 -- 39
2020-11-22 14:00:00 25.5 6 Oeste 13 Oeste 0 1010.8 -- 39
2020-11-22 13:00:00 25.6 3 Oeste 11 Noroeste 0 1011.5 -- 41
2020-11-22 12:00:00 25.2 0 Calma 9 Sudoeste 0 1012.1 -- 43
2020-11-22 11:00:00 23.6 0 Calma 8 Sudeste 0 1012.6 -- 51
2020-11-22 10:00:00 22.2 3 Sur 12 Este 0 1012.2 -- 50
2020-11-22 09:00:00 20.5 6 Este 13 Este 0 1011.6 -- 43
2020-11-22 08:00:00 20.3 6 Este 13 Sudeste 0 1011.2 -- 44
2020-11-22 07:00:00 19.2 0 Calma 15 Este 0 1010.7 -- 46
2020-11-22 06:00:00 20.3 9 Nordeste 15 Este 0 1010.2 -- 42
2020-11-22 05:00:00 20.1 6 Este 12 Este 0 1010.3 -- 45
2020-11-22 04:00:00 19.8 6 Este 12 Este 0 1009.9 -- 50
2020-11-22 03:00:00 20 5 Nordeste 12 Nordeste 0 1010.4 -- 51
2020-11-22 02:00:00 19.8 2 Este 13 Este 0 1010.4 -- 59
2020-11-22 01:00:00 20.1 6 Este 13 Este 0 1011 -- 62
2020-11-22 00:00:00 20.5 5 Este 10 Sudeste 0 1011.2 -- 63
2020-11-21 23:00:00 20.8 5 Este 10 Este 0 1011.1 -- 63
2020-11-21 22:00:00 21.2 5 Este 11 Este 0 1011.1 -- 64
2020-11-21 21:00:00 21.6 2 Sudeste 14 Norte 0 1010.7 -- 61
2020-11-21 20:00:00 22.5 8 Nordeste 14 Nordeste 0 1010.4 -- 53
2020-11-21 19:00:00 22.6 5 Nordeste 16 Sudeste 0 1009.7 -- 50
2020-11-21 18:00:00 23.2 7 Sudeste 33 Sur 0 1009.5 -- 48
2020-11-21 17:00:00 24.1 13 Sur 33 Sur 0 1008.8 -- 48
2020-11-21 16:00:00 24.4 14 Sur 45 Sur 0 1008.6 -- 50
2020-11-21 15:00:00 24.9 18 Sur 42 Sur 0 1008.2 -- 51
2020-11-21 14:00:00 24.5 15 Sur 48 Sur 0 1008.7 -- 56
2020-11-21 13:00:00 25.2 15 Sur 36 Sur 0 1009.5 -- 49
2020-11-21 12:00:00 25.1 17 Sudeste 32 Sudeste 0 1010.3 -- 49
2020-11-21 11:00:00 25.4 12 Sudeste 28 Sur 0 1011 -- 42
2020-11-21 10:00:00 24 0 Calma 10 Nordeste 0 1011.2 -- 39
2020-11-21 09:00:00 22.1 7 Este 13 Este 0 1010.8 -- 39
2020-11-21 08:00:00 21.5 8 Este 16 Este 0 1010.4 -- 38
2020-11-21 07:00:00 21.5 8 Este 15 Este 0 1009.9 -- 39
2020-11-21 06:00:00 21.2 5 Este 11 Este 0 1009.6 -- 42
2020-11-21 05:00:00 20.6 5 Norte 11 Norte 0 1009.6 -- 53
2020-11-21 04:00:00 20.2 4 Nordeste 9 Este 0 1009.7 -- 45
2020-11-21 03:00:00 20.8 2 Norte 13 Norte 0 1009.7 -- 42
2020-11-21 02:00:00 21.5 7 Norte 13 Nordeste 0 1009.9 -- 42
2020-11-21 01:00:00 22 8 Nordeste 12 Nordeste 0 1010.4 -- 42
2020-11-21 00:00:00 21.3 4 Este 10 Sur 0 1010.9 -- 44
2020-11-20 23:00:00 20.6 0 Calma 8 Este 0 1011.3 -- 47
2020-11-20 22:00:00 20.7 2 Nordeste 7 Este 0 1011.5 -- 58
2020-11-20 21:00:00 19.9 0 Calma 5 Nordeste 0 1011.4 -- 71
2020-11-20 20:00:00 20 0 Calma 4 Este 0 1011.2 -- 82
2020-11-20 19:00:00 20.6 0 Calma 0 Calma 0 1010.8 -- 80
2020-11-20 18:00:00 21.7 0 Calma 6 Sudoeste 0 1010.5 -- 75
2020-11-20 17:00:00 22.6 2 Sur 7 Oeste 0 1010.3 -- 74
2020-11-20 16:00:00 22.8 0 Calma 10 Noroeste 0 1010 -- 74
2020-11-20 15:00:00 23.3 3 Noroeste 13 Noroeste 0 1009.9 -- 72
2020-11-20 14:00:00 23.1 6 Noroeste 18 Noroeste 0 1010.3 -- 74
2020-11-20 13:00:00 23 9 Noroeste 23 Noroeste 0 1011 -- 75
2020-11-20 12:00:00 22.2 6 Noroeste 13 Norte 0 1012.3 -- 80
2020-11-20 11:00:00 21.4 0 Calma 8 Noroeste 0 1012.8 -- 82
2020-11-20 10:00:00 20.9 3 Noroeste 6 Noroeste 0 1012.4 -- 82
2020-11-20 09:00:00 18.9 3 Este 9 Este 0 1012.1 -- 79
2020-11-20 08:00:00 18.3 5 Este 8 Este 0 1011.3 -- 79
2020-11-20 07:00:00 18.5 5 Este 12 Este 0 1011 -- 79
2020-11-20 06:00:00 18.6 8 Nordeste 10 Nordeste 0 1010.9 -- 77
2020-11-20 05:00:00 18.5 4 Este 12 Este 0 1010.7 -- 76
2020-11-20 04:00:00 18.8 9 Este 13 Nordeste 0 1011.2 -- 78
2020-11-20 03:00:00 18.8 3 Este 8 Este 0 1011.4 -- 72
2020-11-20 02:00:00 18.7 6 Este 8 Este 0 1011.8 -- 72
2020-11-20 01:00:00 19.2 2 Este 9 Sudeste 0 1012.3 -- 73
2020-11-20 00:00:00 19.6 6 Sudeste 9 Este 0 1013.1 -- 71
2020-11-19 23:00:00 19.2 3 Sudeste 7 Este 0 1013.4 -- 71
2020-11-19 22:00:00 19.1 0 Calma 9 Este 0 1013.4 -- 73
2020-11-19 21:00:00 19.5 0 Calma 9 Norte 0 1013.2 -- 84
2020-11-19 20:00:00 20.1 3 Noroeste 12 Noroeste 0 1013.1 -- 89
2020-11-19 19:00:00 20.3 4 Noroeste 11 Noroeste 0 1012.7 -- 87
2020-11-19 18:00:00 20.9 4 Noroeste 14 Noroeste 0 1012.7 -- 84
2020-11-19 17:00:00 22.8 3 Oeste 10 Oeste 0 1012.7 -- 73
2020-11-19 16:00:00 23.3 0 Calma 8 Sudoeste 0 1012.5 -- 67
2020-11-19 15:00:00 23.8 0 Calma 9 Sur 0 1012.8 -- 67
2020-11-19 14:00:00 23.9 3 Sudoeste 12 Sudoeste 0 1013.5 -- 67
2020-11-19 13:00:00 23.8 2 Sudoeste 10 Oeste 0 1014.2 -- 70
2020-11-19 12:00:00 -- -- -- -- -- -- -- -- --
2020-11-19 11:00:00 22.6 2 Sudoeste 8 Sudoeste 0 1015.7 -- 75
2020-11-19 10:00:00 21.9 0 Calma 10 Sur 0 1015.8 -- 80
2020-11-19 09:00:00 20.8 8 Sudeste 14 Sudeste 0 1015.3 -- 81
2020-11-19 08:00:00 19.7 7 Este 12 Este 0 1015.1 -- 82
2020-11-19 07:00:00 19.9 5 Este 12 Sudeste 0 1014.9 -- 84
2020-11-19 06:00:00 20.1 7 Este 12 Este 0 1014.6 -- 83
2020-11-19 05:00:00 19.9 6 Este 13 Este 0 1014.3 -- 83
2020-11-19 04:00:00 20 5 Nordeste 10 Nordeste 0 1014.7 -- 84
2020-11-19 03:00:00 20.2 3 Este 14 Sudeste 0 1014.8 -- 82
2020-11-19 02:00:00 20.3 7 Este 14 Sudeste 0 1015.2 -- 86
2020-11-19 01:00:00 20.4 5 Sudeste 12 Este 0 1015.5 -- 86
2020-11-19 00:00:00 20.6 4 Este 9 Este 0 1016.2 -- 85
2020-11-18 23:00:00 21 4 Este 15 Sudeste 0 1016.2 -- 86
2020-11-18 22:00:00 21 7 Sudeste 15 Sudeste 0 1016.3 -- 87
2020-11-18 21:00:00 21.2 6 Sudeste 9 Sudeste 0 1016.2 -- 87
2020-11-18 20:00:00 21.4 0 Calma 10 Sur 0 1015.9 -- 86
2020-11-18 19:00:00 21.9 7 Sudeste 16 Sudeste 0 1015.3 -- 83
2020-11-18 18:00:00 22.8 7 Sur 21 Sudeste 0 1015.2 -- 81
2020-11-18 17:00:00 23.7 9 Sur 18 Sur 0 1014.9 -- 75
2020-11-18 16:00:00 24.9 9 Sur 22 Sur 0 1014.8 -- 63
2020-11-18 15:00:00 24.9 10 Sudeste 19 Sudeste 0 1014.9 -- 66
2020-11-18 14:00:00 24.6 2 Sur 12 Sur 0 1015.2 -- 72
2020-11-18 13:00:00 25 5 Sur 12 Sur 0 1015.5 -- 70
2020-11-18 12:00:00 24.5 0 Calma 7 Oeste 0 1016.2 -- 76
2020-11-18 11:00:00 24.1 2 Noroeste 9 Sudoeste 0 1016.5 -- 68
2020-11-18 10:00:00 23.1 3 Sudeste 10 Este 0 1016.2 -- 67
2020-11-18 09:00:00 21.7 3 Este 12 Este 0 1015.8 -- 56
2020-11-18 08:00:00 21.1 3 Norte 14 Sudeste 0 1015.4 -- 53
2020-11-18 07:00:00 22.4 3 Sudeste 15 Este 0 1014.3 -- 40
2020-11-18 06:00:00 21.9 4 Sudeste 11 Sudeste 0 1014.3 -- 40
2020-11-18 05:00:00 21.9 4 Sudeste 11 Sudeste 0 1014.2 -- 39
2020-11-18 04:00:00 21.6 2 Nordeste 8 Este 0 1014.3 -- 40
2020-11-18 03:00:00 21.6 3 Este 9 Este 0 1014.3 -- 39
2020-11-18 02:00:00 21 0 Calma 8 Este 0 1014.5 -- 42
2020-11-18 01:00:00 22.2 3 Sudeste 9 Sudeste 0 1014.7 -- 41
2020-11-18 00:00:00 22.6 0 Calma 15 Este 0 1014.8 -- 38
2020-11-17 23:00:00 23.7 8 Este 11 Este 0 1015 -- 35
2020-11-17 22:00:00 23.3 4 Nordeste 12 Norte 0 1015.3 -- 41
2020-11-17 21:00:00 23.3 3 Nordeste 14 Norte 0 1015 -- 50
2020-11-17 20:00:00 22.8 0 Calma 8 Este 0 1014.4 -- 44
2020-11-17 19:00:00 23 0 Calma 5 Norte 0 1013.8 -- 52
2020-11-17 18:00:00 24.9 0 Calma 5 Noroeste 0 1013.1 -- 56
2020-11-17 17:00:00 25.9 0 Calma 8 Noroeste 0 1012.7 -- 53
2020-11-17 16:00:00 26.2 6 Noroeste 9 Norte 0 1012.7 -- 48
2020-11-17 15:00:00 26.5 4 Noroeste 11 Noroeste 0 1012.4 -- 48
2020-11-17 14:00:00 25.9 5 Noroeste 12 Noroeste 0 1012.9 -- 47
2020-11-17 13:00:00 25.5 6 Noroeste 10 Noroeste 0 1013.9 -- 49
2020-11-17 12:00:00 24.5 2 Noroeste 9 Noroeste 0 1014.4 -- 55
2020-11-17 11:00:00 23.7 2 Noroeste 7 Noroeste 0 1014.6 -- 82
2020-11-17 10:00:00 22.9 3 Noroeste 8 Norte 0 1014.5 -- 88
2020-11-17 09:00:00 21.3 0 Calma 10 Este 0 1014 -- 84
2020-11-17 08:00:00 19.9 0 Calma 9 Este 0 1013.3 -- 68
2020-11-17 07:00:00 19.1 0 Calma 3 Sudeste 0 1012.8 -- 93
2020-11-17 06:00:00 19.5 0 Calma 0 Calma 0 1012.6 -- 94
2020-11-17 05:00:00 18.8 0 Calma -- -- 0 1012.5 -- 90
2020-11-17 04:00:00 18.2 0 Calma 0 Calma 0 1012.6 -- 81
2020-11-17 03:00:00 18.3 0 Calma -- -- 0 1012.7 -- 74
2020-11-17 02:00:00 18.4 0 Calma 0 Calma 0 1012.9 -- 58
2020-11-17 01:00:00 18.4 0 Calma 0 Calma 0 1013.2 -- 60
2020-11-17 00:00:00 18.5 0 Calma 3 Este 0 1013.6 -- 66
2020-11-16 23:00:00 18.9 0 Calma 3 Sudeste 0 1013.7 -- 69
2020-11-16 22:00:00 19.3 0 Calma 3 Este 0 1013.9 -- 72
2020-11-16 21:00:00 20.2 0 Calma 6 Sudeste 0 1013.8 -- 78
2020-11-16 20:00:00 20.5 3 Sudeste 5 Sudeste 0 1013.6 -- 84
2020-11-16 19:00:00 21.2 0 Calma 5 Sudeste 0 1013 -- 82
2020-11-16 18:00:00 22.3 0 Calma 4 Noroeste 0 1012.7 -- 79
2020-11-16 17:00:00 23.1 0 Calma 10 Oeste 0 1012.5 -- 78
2020-11-16 16:00:00 23 4 Noroeste 16 Noroeste 0 1012.6 -- 79
2020-11-16 15:00:00 23.5 8 Noroeste 14 Noroeste 0 1012.6 -- 76
2020-11-16 14:00:00 23.4 5 Noroeste 13 Noroeste 0 1013.2 -- 76
2020-11-16 13:00:00 23.2 6 Noroeste 12 Oeste 0 1013.9 -- 76
2020-11-16 12:00:00 23.2 3 Noroeste 9 Oeste 0 1014.5 -- 74
2020-11-16 11:00:00 23 4 Noroeste 9 Noroeste 0 1014.9 -- 78
2020-11-16 10:00:00 21 0 Calma 6 Este 0 1014.7 -- 83
2020-11-16 09:00:00 19.7 3 Nordeste 7 Este 0 1014.2 -- 85
2020-11-16 08:00:00 19.2 4 Este 9 Este 0 1013.2 -- 86
2020-11-16 07:00:00 19.5 5 Sudeste 10 Sudeste 0 1012.6 -- 88
2020-11-16 06:00:00 19.6 5 Este 8 Este 0 1012.4 -- 85
2020-11-16 05:00:00 20 3 Nordeste 8 Nordeste 0 1012.2 -- 79
2020-11-16 04:00:00 19.8 3 Nordeste 6 Nordeste 0 1012.1 -- 74
2020-11-16 03:00:00 20 2 Este 7 Este 0 1012.2 -- 78
2020-11-16 02:00:00 20.3 3 Este 6 Este 0 1012.5 -- 76
2020-11-16 01:00:00 20.5 3 Nordeste 7 Nordeste 0 1012.6 -- 73
2020-11-16 00:00:00 20.5 2 Norte 9 Nordeste 0 1012.9 -- 74
2020-11-15 23:00:00 20.7 4 Nordeste 9 Este 0 1013 -- 75
2020-11-15 22:00:00 20.6 6 Este 8 Este 0 1013.1 -- 78
2020-11-15 21:00:00 21 4 Este 6 Este 0 1012.9 -- 86
2020-11-15 20:00:00 21.6 0 Calma 3 Nordeste 0 1012.5 -- 88
2020-11-15 19:00:00 22 0 Calma 3 Sudoeste 0 1011.9 -- 87
2020-11-15 18:00:00 22.6 0 Calma 4 Sudoeste 0 1011.4 -- 83
2020-11-15 17:00:00 23.3 0 Calma 5 Oeste 0 1011 -- 81
2020-11-15 16:00:00 24.2 2 Oeste 7 Sudoeste 0 1010.9 -- 78
2020-11-15 15:00:00 24.2 0 Calma 9 Oeste 0 1010.8 -- 79
2020-11-15 14:00:00 24.1 0 Calma 6 Sudoeste 0 1010.9 -- 75
2020-11-15 13:00:00 23.8 3 Sudoeste 10 Sudoeste 0 1011.3 -- 78
2020-11-15 12:00:00 24.1 3 Sudoeste 8 Sudoeste 0 1011.7 -- 79
2020-11-15 11:00:00 23 2 Noroeste 8 Noroeste 0 1011.7 -- 82
2020-11-15 10:00:00 22.5 0 Calma 6 Noroeste 0 1011.1 -- 91
2020-11-15 09:00:00 21.8 2 Nordeste 8 Nordeste 0 1010.5 -- 88
2020-11-15 08:00:00 21.5 0 Calma 6 Nordeste 0.1 1010.1 -- 92
2020-11-15 07:00:00 21.4 0 Calma 4 Nordeste 0 1009.5 -- 93
2020-11-15 06:00:00 21.1 0 Calma 7 Sudoeste 0 1009.1 -- 94
2020-11-15 05:00:00 21.1 0 Calma 3 Oeste 0 1008.9 -- 94
2020-11-15 04:00:00 21.2 0 Calma 9 Sudoeste 0 1008.9 -- 94
2020-11-15 03:00:00 21.4 0 Calma 9 Sudoeste 0.5 1009 -- 94
2020-11-15 02:00:00 21.7 3 Nordeste 10 Sudeste 0.3 1009.4 -- 91
2020-11-15 01:00:00 21.7 5 Sur 16 Este 0 1009.5 -- 92
2020-11-15 00:00:00 21.6 0 Calma 7 Sur 0 1009.6 -- 92
2020-11-14 23:00:00 21.7 3 Sur 10 Sur 0 1009.9 -- 92
2020-11-14 22:00:00 21.6 4 Sudeste 8 Sudeste 0 1009.8 -- 92
2020-11-14 21:00:00 21.8 4 Sudeste 21 Sudeste 0 1010 -- 90
2020-11-14 20:00:00 22 0 Calma 8 Sudeste 0.9 1009.4 -- 89
2020-11-14 19:00:00 22.7 3 Sudeste 11 Sur 0 1008.8 -- 86
2020-11-14 18:00:00 23.1 2 Sudeste 14 Oeste 0 1008.6 -- 83
2020-11-14 17:00:00 23.7 0 Calma 13 Sudoeste 0 1008.2 -- 76
2020-11-14 16:00:00 24.2 2 Sur 10 Sur 0 1008.4 -- 74
2020-11-14 15:00:00 24.9 3 Sudoeste 14 Sudoeste 0 1008.5 -- 69
2020-11-14 14:00:00 24.9 3 Sur 17 Sur 0 1008.7 -- 67
2020-11-14 13:00:00 25.2 4 Sur 14 Sur 0 1009.1 -- 68
2020-11-14 12:00:00 24.6 0 Calma 14 Sur 0 1009.6 -- 67
2020-11-14 11:00:00 23.7 2 Sudeste 10 Sur 0 1010.1 -- 70
2020-11-14 10:00:00 23.1 3 Sur 10 Sudeste 0 1009.9 -- 81
2020-11-14 09:00:00 22.2 4 Sudeste 12 Sur 0 1009.5 -- 86
2020-11-14 08:00:00 21.5 4 Este 11 Sur 0 1008.5 -- 83
2020-11-14 07:00:00 21.5 0 Calma 9 Sudeste 0 1008.1 -- 82
2020-11-14 06:00:00 21.1 5 Este 10 Este 0 1007.6 -- 73
2020-11-14 05:00:00 20.6 4 Este 12 Este 0 1007.6 -- 65
2020-11-14 04:00:00 19.4 3 Sudeste 8 Sudeste 0 1007.5 -- 75
2020-11-14 03:00:00 19.7 3 Sudeste 13 Sudeste 0 1007.8 -- 89
2020-11-14 02:00:00 20.4 6 Sudeste 14 Sudeste 0 1008.2 -- 90
2020-11-14 01:00:00 20.6 9 Sudeste 14 Sudeste 0 1008.6 -- 92
2020-11-14 00:00:00 20.6 4 Sudeste 12 Sudeste 0 1008.8 -- 78
2020-11-13 23:00:00 21.1 6 Sudeste 15 Sudeste 0 1009.4 -- 84
2020-11-13 22:00:00 21 7 Sudeste 14 Sudeste 0 1009.6 -- 89
2020-11-13 21:00:00 21.3 7 Sudeste 12 Sudeste 0 1009.8 -- 84
2020-11-13 20:00:00 21.9 6 Sudeste 16 Sudeste 0 1009.5 -- 75
2020-11-13 19:00:00 22.2 6 Sudeste 20 Sur 0 1008.8 -- 75
2020-11-13 18:00:00 22.5 10 Sur 22 Sudeste 0 1008.3 -- 77
2020-11-13 17:00:00 23.2 13 Sur 24 Sur 0 1007.7 -- 75
2020-11-13 16:00:00 23.7 9 Sur 25 Sur 0 1008.6 -- 72
2020-11-13 15:00:00 23.7 12 Sur 31 Sudeste 0 1009 -- 75
2020-11-13 14:00:00 24.8 13 Sur 32 Sur 0 1008.8 -- 67
2020-11-13 13:00:00 24.5 13 Sudeste 35 Sur 0 1009.6 -- 60
2020-11-13 12:00:00 24.6 13 Sur 26 Sur 0 1009.4 -- 45
2020-11-13 11:00:00 24.3 10 Sur 26 Sudeste 0 1009.9 -- 50
2020-11-13 10:00:00 23.8 0 Calma 13 Nordeste 0 1009.3 -- 52
2020-11-13 09:00:00 23 5 Nordeste 15 Nordeste 0 1008.5 -- 55
2020-11-13 08:00:00 21.9 3 Nordeste 22 Nordeste 0 1008 -- 77
2020-11-13 07:00:00 21.2 15 Norte 27 Norte 0 1009 -- 89
2020-11-13 06:00:00 20.6 5 Sudeste 14 Sudeste 0 1007.5 -- 90
2020-11-13 05:00:00 21 0 Calma 15 Noroeste 0 1009.4 -- 88
2020-11-13 04:00:00 21 0 Calma 8 Nordeste 0 1009.9 -- 88
2020-11-13 03:00:00 20.9 2 Este 9 Sudeste 0 1009.5 -- 91
2020-11-13 02:00:00 20.8 3 Nordeste 6 Este 0 1009.3 -- 89
2020-11-13 01:00:00 21 0 Calma 5 Este 0 1010 -- 89
2020-11-13 00:00:00 21.1 2 Este 9 Norte 0 1010.6 -- 91
2020-11-12 23:00:00 21.1 4 Nordeste 9 Norte 0 1010.4 -- 91
2020-11-12 22:00:00 21.2 0 Calma 6 Nordeste 0 1010.3 -- 89
2020-11-12 21:00:00 21.2 4 Norte 12 Norte 0 1009.9 -- 89
2020-11-12 20:00:00 21.2 6 Norte 11 Norte 0 1010.3 -- 88
2020-11-12 19:00:00 21.3 6 Sudeste 12 Sudeste 0 1009.2 -- 86
2020-11-12 18:00:00 21.5 0 Calma 14 Sur 0 1009.8 -- 84
2020-11-12 17:00:00 22.5 0 Calma 7 Noroeste 0 1008.8 -- 83
2020-11-12 16:00:00 22.7 2 Oeste 6 Oeste 0 1009.9 -- 82
2020-11-12 15:00:00 22.7 0 Calma 7 Sudoeste 0 1009.2 -- 83
2020-11-12 14:00:00 22.8 3 Noroeste 11 Oeste 0 1009 -- 81
2020-11-12 13:00:00 23.1 4 Noroeste 12 Noroeste 0 1010.4 -- 81
2020-11-12 12:00:00 23.3 3 Oeste 9 Oeste 0 1010.9 -- 79
2020-11-12 11:00:00 22.8 3 Sudoeste 10 Sur 0 1010.7 -- 81
2020-11-12 10:00:00 21.9 3 Sur 7 Sur 0 1010.6 -- 85
2020-11-12 09:00:00 20.7 0 Calma 4 Este 0 1010.6 -- 84
2020-11-12 08:00:00 20 3 Este 7 Sudeste 0 1010 -- 85
2020-11-12 07:00:00 19.4 2 Sudeste 7 Sudeste 0 1008.9 -- 84
2020-11-12 06:00:00 19.9 3 Sudeste 7 Norte 0 1008.8 -- 85
2020-11-12 05:00:00 20.1 3 Nordeste 7 Nordeste 0 1009.2 -- 89
2020-11-12 04:00:00 20.3 2 Nordeste 11 Sudeste 0 1009.1 -- 89
2020-11-12 03:00:00 20.6 3 Norte 14 Nordeste 0 1009.4 -- 87
2020-11-12 02:00:00 20.6 3 Norte 14 Nordeste 0 1009.6 -- 85
2020-11-12 01:00:00 20.6 5 Norte 12 Nordeste 0 1010.4 -- 83
2020-11-12 00:00:00 20.6 3 Norte 8 Norte 0 1010.2 -- 81
2020-11-11 23:00:00 20.8 4 Sudeste 12 Sudeste 0 1010.8 -- 81
2020-11-11 22:00:00 20.9 5 Sudeste 11 Sudeste 0 1012.1 -- 80
2020-11-11 21:00:00 21 4 Sudeste 7 Sur 0 1012.3 -- 80
2020-11-11 20:00:00 21 4 Sudeste 9 Sudeste 0 1011.5 -- 79
2020-11-11 19:00:00 21.5 3 Sur 8 Sur 0 1010.9 -- 77
2020-11-11 18:00:00 21.8 0 Calma 10 Noroeste 0 1010.6 -- 75
2020-11-11 17:00:00 22 5 Noroeste 12 Noroeste 0 1010.2 -- 73
2020-11-11 16:00:00 22.2 6 Noroeste 15 Noroeste 0 1010.1 -- 71
2020-11-11 15:00:00 22.6 8 Noroeste 16 Oeste 0 1010 -- 71
2020-11-11 14:00:00 23.2 7 Noroeste 15 Noroeste 0 1010.2 -- 70
2020-11-11 13:00:00 23 6 Noroeste 13 Oeste 0 1010.9 -- 70
2020-11-11 12:00:00 22.7 3 Noroeste 11 Sudoeste 0 1011.1 -- 71
2020-11-11 11:00:00 22 0 Calma 7 Oeste 0 1011.4 -- 72
2020-11-11 10:00:00 21.3 0 Calma 4 Noroeste 0 1012.2 -- 74
2020-11-11 09:00:00 20.2 4 Nordeste 9 Este 0 1011.2 -- 74
2020-11-11 08:00:00 19.2 6 Este 10 Este 0 1010.7 -- 75
2020-11-11 07:00:00 19.3 4 Este 12 Sudeste 0 1010.4 -- 72
2020-11-11 06:00:00 19.3 5 Este 10 Este 0 1010.3 -- 72
2020-11-11 05:00:00 19.3 4 Este 11 Nordeste 0 1010 -- 73
2020-11-11 04:00:00 19 6 Este 10 Este 0 1010.6 -- 74
2020-11-11 03:00:00 18.8 5 Este 12 Este 0 1009.7 -- 74
2020-11-11 02:00:00 18.5 8 Este 13 Este 0 1010.8 -- 75
2020-11-11 01:00:00 18.4 7 Este 13 Este 0 1010.9 -- 76
2020-11-11 00:00:00 18.9 8 Este 11 Este 0 1012.1 -- 75
2020-11-10 23:00:00 19.5 6 Este 9 Este 0 1012.9 -- 74
2020-11-10 22:00:00 19.9 4 Este 10 Este 0 1012.5 -- 76
2020-11-10 21:00:00 19.9 7 Este 11 Este 0 1012.4 -- 75
2020-11-10 20:00:00 20.4 3 Nordeste 17 Noroeste 0 1011.9 -- 75
2020-11-10 19:00:00 21.1 10 Noroeste 23 Noroeste 0 1011.6 -- 73
2020-11-10 18:00:00 21.5 10 Noroeste 19 Noroeste 0 1011 -- 71
2020-11-10 17:00:00 22 8 Noroeste 18 Noroeste 0 1010.5 -- 68
2020-11-10 16:00:00 22.5 8 Noroeste 16 Norte 0 1010.7 -- 67
2020-11-10 15:00:00 23 8 Noroeste 14 Noroeste 0 1010.8 -- 67
2020-11-10 14:00:00 23.4 6 Noroeste 14 Noroeste 0 1011.3 -- 66
2020-11-10 13:00:00 23.5 0 Calma 10 Sudoeste 0 1012 -- 66
2020-11-10 12:00:00 23.3 4 Sur 13 Sur 0 1012.6 -- 65
2020-11-10 11:00:00 22.6 4 Sur 12 Sur 0 1013.5 -- 70
2020-11-10 10:00:00 21.3 0 Calma 8 Este 0 1013.4 -- 73
2020-11-10 09:00:00 19.7 5 Este 11 Este 0 1013 -- 72
2020-11-10 08:00:00 18.9 6 Este 13 Este 0 1012.5 -- 74
2020-11-10 07:00:00 19 8 Este 14 Este 0 1012.5 -- 74
2020-11-10 06:00:00 19.4 7 Este 12 Este 0 1012.2 -- 78
2020-11-10 05:00:00 20.5 4 Este 8 Este 0 1012.8 -- 76
2020-11-10 04:00:00 20.2 3 Este 8 Este 0 1012.5 -- 77
2020-11-10 03:00:00 20.4 3 Este 7 Sudeste 0 1012.2 -- 77
2020-11-10 02:00:00 20.5 0 Calma 4 Este 0 1012.5 -- 77
2020-11-10 01:00:00 20.6 0 Calma 9 Este 0 1012.5 -- 77
2020-11-10 00:00:00 20.3 4 Nordeste 8 Este 0 1013.3 -- 78
2020-11-09 23:00:00 20.3 0 Calma 13 Este 0 1014 -- 78
2020-11-09 22:00:00 20.7 2 Sudeste 8 Sudeste 0 1014.8 -- 78
2020-11-09 21:00:00 20.7 2 Sudeste 5 Sudeste 0 1014.3 -- 77
2020-11-09 20:00:00 21.1 0 Calma 0 Calma 0 1014 -- 74
2020-11-09 19:00:00 21.5 0 Calma 2 Sudoeste 0 1013.6 -- 72
2020-11-09 18:00:00 21.7 0 Calma 6 Sudoeste 0 1013.3 -- 70
2020-11-09 17:00:00 22.6 3 Sur 11 Sur 0 1013.4 -- 69
2020-11-09 16:00:00 23.1 5 Sur 13 Sur 0 1013.3 -- 67
2020-11-09 15:00:00 23 3 Sur 8 Sudoeste 0 1013.5 -- 67
2020-11-09 14:00:00 22.5 0 Calma 16 Noroeste 0 1014 -- 69
2020-11-09 13:00:00 22.3 6 Noroeste 18 Noroeste 0 1014.7 -- 69
2020-11-09 12:00:00 21.9 6 Noroeste 14 Noroeste 0 1015.1 -- 70
2020-11-09 11:00:00 22.6 4 Oeste 10 Oeste 0 1016 -- 68
2020-11-09 10:00:00 21.6 4 Sudeste 12 Sudeste 0 1016 -- 68
2020-11-09 09:00:00 19.4 5 Este 14 Este 0 1015.4 -- 72
2020-11-09 08:00:00 19 5 Este 14 Este 0 1014.9 -- 73
2020-11-09 07:00:00 18.3 7 Este 15 Nordeste 0 1014.4 -- 73
2020-11-09 06:00:00 18.1 9 Este 15 Este 0 1014.2 -- 71
2020-11-09 05:00:00 18 8 Este 14 Este 0 1014.2 -- 66
2020-11-09 04:00:00 18.4 8 Este 12 Este 0 1014.3 -- 64
2020-11-09 03:00:00 18.7 7 Este 15 Este 0 1014.7 -- 65
2020-11-09 02:00:00 18.9 5 Este 14 Este 0 1015 -- 62
2020-11-09 01:00:00 19.1 6 Nordeste 15 Norte 0 1015.3 -- 62
2020-11-09 00:00:00 19.7 11 Nordeste 18 Nordeste 0 1015.6 -- 63
2020-11-08 23:00:00 19 8 Nordeste 14 Nordeste 0 1015.8 -- 67
2020-11-08 22:00:00 19.1 8 Este 14 Nordeste 0 1015.8 -- 71
2020-11-08 21:00:00 19.7 7 Este 13 Este 0 1015.4 -- 68
2020-11-08 20:00:00 20.3 3 Sudeste 13 Sur 0 1014.9 -- 69
2020-11-08 19:00:00 20.9 0 Calma 12 Sudoeste 0 1014.4 -- 67
2020-11-08 18:00:00 21.8 4 Oeste 14 Noroeste 0 1014.2 -- 65
2020-11-08 17:00:00 22.4 7 Noroeste 16 Noroeste 0 1013.9 -- 63
2020-11-08 16:00:00 22.9 6 Noroeste 16 Oeste 0 1014.1 -- 61
2020-11-08 15:00:00 23.7 7 Oeste 16 Noroeste 0 1014.1 -- 59
2020-11-08 14:00:00 23.5 6 Noroeste 14 Oeste 0 1014.5 -- 60
2020-11-08 13:00:00 23.1 6 Noroeste 14 Noroeste 0 1015 -- 61
2020-11-08 12:00:00 22.4 4 Oeste 12 Noroeste 0 1015.7 -- 63
2020-11-08 11:00:00 21.8 5 Noroeste 11 Noroeste 0 1016 -- 65
2020-11-08 10:00:00 20.7 4 Norte 9 Noroeste 0 1015.7 -- 63
2020-11-08 09:00:00 20 4 Este 12 Este 0 1015.7 -- 63
2020-11-08 08:00:00 18.7 7 Este 14 Nordeste 0 1015.1 -- 69
2020-11-08 07:00:00 18.4 9 Este 17 Nordeste 0 1014.6 -- 71
2020-11-08 06:00:00 18.7 8 Norte 17 Norte 0 1014.5 -- 69
2020-11-08 05:00:00 18.2 6 Este 12 Este 0 1014.1 -- 64
2020-11-08 04:00:00 17.9 8 Este 12 Este 0 1014.1 -- 68
2020-11-08 03:00:00 18.4 7 Este 9 Este 0 1014.3 -- 68
2020-11-08 02:00:00 18.9 7 Este 12 Este 0 1014.5 -- 64
2020-11-08 01:00:00 18.6 9 Este 13 Este 0 1014.8 -- 64
2020-11-08 00:00:00 18.4 8 Este 13 Este 0 1014.9 -- 66
2020-11-07 23:00:00 19 7 Este 13 Este 0 1015 -- 63
2020-11-07 22:00:00 19 9 Este 12 Este 0 1014.8 -- 63
2020-11-07 21:00:00 19.6 7 Este 12 Nordeste 0 1014.7 -- 62
2020-11-07 20:00:00 20 5 Este 9 Nordeste 0 1014.2 -- 62
2020-11-07 19:00:00 20.3 2 Norte 8 Noroeste 0 1013.6 -- 62
2020-11-07 18:00:00 21.3 6 Noroeste 10 Noroeste 0 1013.1 -- 58
2020-11-07 17:00:00 21.9 6 Noroeste 11 Noroeste 0 1013 -- 57
2020-11-07 16:00:00 22.3 5 Noroeste 12 Oeste 0 1012.6 -- 57
2020-11-07 15:00:00 22.9 5 Oeste 13 Oeste 0 1012.5 -- 56
2020-11-07 14:00:00 23.3 4 Sudoeste 13 Oeste 0 1013 -- 56
2020-11-07 13:00:00 22.7 5 Oeste 13 Oeste 0 1013.7 -- 52
2020-11-07 12:00:00 22.1 5 Oeste 12 Oeste 0 1014.3 -- 56
2020-11-07 11:00:00 21.6 5 Sudoeste 9 Sudoeste 0 1014.3 -- 58
2020-11-07 10:00:00 20.2 0 Calma 14 Este 0 1014 -- 56
2020-11-07 09:00:00 18.2 10 Este 18 Este 0 1013.4 -- 60
2020-11-07 08:00:00 16.9 13 Este 18 Este 0 1012.4 -- 65
2020-11-07 07:00:00 17.4 12 Este 17 Este 0 1011.6 -- 60
2020-11-07 06:00:00 17.4 12 Este 17 Este 0 1011.3 -- 62
2020-11-07 05:00:00 17.4 11 Este 17 Este 0 1010.9 -- 64
2020-11-07 04:00:00 17.2 10 Este 15 Este 0 1010.9 -- 67
2020-11-07 03:00:00 17.2 10 Este 14 Este 0 1010.7 -- 67
2020-11-07 02:00:00 17.4 10 Este 15 Este 0 1010.5 -- 63
2020-11-07 01:00:00 17.7 10 Este 16 Este 0 1010.5 -- 61
2020-11-07 00:00:00 17.8 10 Este 18 Este 0 1010.6 -- 56
2020-11-06 23:00:00 18 10 Este 18 Nordeste 0 1010.3 -- 61
2020-11-06 22:00:00 18.2 11 Este 15 Este 0 1010.2 -- 64
2020-11-06 21:00:00 18.4 9 Este 14 Este 0 1009.6 -- 66
2020-11-06 20:00:00 19.4 3 Nordeste 10 Nordeste 0 1008.7 -- 65
2020-11-06 19:00:00 20 7 Nordeste 13 Nordeste 0 1008.1 -- 63
2020-11-06 18:00:00 20.7 4 Noroeste 12 Noroeste 0 1007.7 -- 63
2020-11-06 17:00:00 21.2 7 Noroeste 18 Norte 0 1007.3 -- 59
2020-11-06 16:00:00 21.8 8 Noroeste 18 Noroeste 0 1007.1 -- 57
2020-11-06 15:00:00 22.1 10 Noroeste 18 Noroeste 0 1006.9 -- 56
2020-11-06 14:00:00 22 9 Noroeste 20 Noroeste 0 1006.9 -- 56
2020-11-06 13:00:00 22 8 Noroeste 19 Noroeste 0 1007 -- 61
2020-11-06 12:00:00 21.3 10 Noroeste 19 Noroeste 0 1007.4 -- 67
2020-11-06 11:00:00 20.7 10 Norte 19 Norte 0 1007 -- 70
2020-11-06 10:00:00 19.8 5 Norte 17 Noroeste 0 1006.3 2.9 75
2020-11-06 09:00:00 18.9 6 Noroeste 15 Oeste 0 1005.2 -- 78
2020-11-06 08:00:00 18.5 5 Norte 17 Norte 0 1004 -- 85
2020-11-06 07:00:00 18.2 12 Nordeste 24 Noroeste 1.1 1003.4 -- 87
2020-11-06 06:00:00 17.3 8 Nordeste 27 Noroeste 2.7 1003 -- 96
2020-11-06 05:00:00 18.1 0 Calma 19 Norte 0 1002.6 -- 89
2020-11-06 04:00:00 17.4 5 Norte 23 Oeste 1.5 1002.6 -- 94
2020-11-06 03:00:00 18.9 4 Noroeste 23 Sudoeste 0.7 1002.3 -- 89
2020-11-06 02:00:00 19 3 Sudoeste 12 Sudeste 0 1002.2 -- 89
2020-11-06 01:00:00 18.5 6 Sudeste 13 Sudeste 0.6 1002.4 -- 86
2020-11-06 00:00:00 18.9 0 Calma 7 Sudeste 0 1002.5 -- 75
2020-11-05 23:00:00 18.8 2 Nordeste 10 Este 0 1002.7 -- 71
2020-11-05 22:00:00 18.9 3 Este 7 Sudeste 0 1002.8 -- 69
2020-11-05 21:00:00 19.2 0 Calma 9 Este 0 1002.6 -- 68
2020-11-05 20:00:00 18.8 3 Nordeste 10 Norte 0 1002.4 -- 71
2020-11-05 19:00:00 18.9 0 Calma 9 Nordeste 0 1001.9 -- 75
2020-11-05 18:00:00 19.2 4 Nordeste 13 Noroeste 0.3 1001.6 -- 76
2020-11-05 17:00:00 20.1 0 Calma 10 Noroeste 0 1001.4 -- 65
2020-11-05 16:00:00 20.8 5 Norte 13 Noroeste 0 1001.4 -- 62
2020-11-05 15:00:00 21.3 5 Noroeste 17 Noroeste 0 1001.7 -- 62
2020-11-05 14:00:00 21.6 8 Noroeste 18 Noroeste 0 1001.9 -- 61
2020-11-05 13:00:00 21.4 4 Noroeste 14 Noroeste 0 1002.5 -- 65
2020-11-05 12:00:00 21.1 6 Noroeste 14 Noroeste 0 1003.5 -- 66
2020-11-05 11:00:00 19.4 9 Norte 23 Noroeste 0 1004.4 -- 76
2020-11-05 10:00:00 19.5 5 Noroeste 17 Noroeste 0 1004.4 -- 74
2020-11-05 09:00:00 18.2 2 Nordeste 13 Este 0 1004.1 -- 70
2020-11-05 08:00:00 17.5 2 Nordeste 10 Nordeste 0 1003.8 -- 69
2020-11-05 07:00:00 17.7 2 Nordeste 11 Este 0 1003.7 -- 72
2020-11-05 06:00:00 18.1 4 Norte 15 Nordeste 0 1003.9 -- 71
2020-11-05 05:00:00 18.4 4 Noroeste 15 Este 0 1004.2 -- 75
2020-11-05 04:00:00 18.8 10 Sudeste 16 Sudeste 0 1004.6 -- 78
2020-11-05 03:00:00 18.9 3 Sudeste 8 Sudeste 0 1004.9 -- 82
2020-11-05 02:00:00 19.3 3 Sudeste 13 Sudeste 0 1005.8 -- 82
2020-11-05 01:00:00 19.5 4 Sudeste 9 Este 0 1006.5 -- 83
2020-11-05 00:00:00 19.3 5 Este 14 Este 0 1007.3 -- 84
2020-11-04 23:00:00 18.8 9 Este 18 Nordeste 0 1008.2 -- 82
2020-11-04 22:00:00 19 10 Este 17 Sudeste 2.6 1008.5 -- 84
2020-11-04 21:00:00 20.1 6 Sudeste 15 Sudeste 0.8 1008.5 -- 85
2020-11-04 20:00:00 21 2 Sur 9 Sur 0 1008.6 -- 79
2020-11-04 19:00:00 21.1 5 Sur 14 Sudeste 0 1008.6 -- 78
2020-11-04 18:00:00 22 3 Sur 15 Sur 0 1008.6 -- 75
2020-11-04 17:00:00 22.5 8 Sur 17 Sur 0 1008.6 -- 76
2020-11-04 16:00:00 22.4 2 Sur 17 Sudeste 0 1008.8 -- 78
2020-11-04 15:00:00 22.5 7 Sudeste 19 Sudeste 0 1009.4 -- 77
2020-11-04 14:00:00 23 4 Sur 15 Sur 0 1010 -- 77
2020-11-04 13:00:00 23.2 5 Sur 11 Sur 0 1010.8 -- 82
2020-11-04 12:00:00 21.2 10 Sudeste 17 Sudeste 0.9 1011.7 -- 89
2020-11-04 11:00:00 22.2 0 Calma 8 Sudoeste 0 1012.4 -- 85
2020-11-04 10:00:00 21.6 0 Calma 15 Sudeste 0 1012.1 0.8 87
2020-11-04 09:00:00 21.1 5 Este 24 Sudeste 0.8 1012.5 -- 87
2020-11-04 08:00:00 21.3 11 Sudeste 18 Sudeste 0.2 1011.4 -- 86
2020-11-04 07:00:00 21.5 3 Sur 23 Sur 0 1011.3 -- 81
2020-11-04 06:00:00 21.2 4 Este 10 Sudeste 0 1011.3 -- 82
2020-11-04 05:00:00 21.4 4 Sudeste 10 Sudoeste 0 1012.1 -- 83
2020-11-04 04:00:00 21.2 2 Este 12 Sudeste 0 1012.4 -- 78
2020-11-04 03:00:00 21.5 7 Este 16 Sudeste 0 1012.9 -- 76
2020-11-04 02:00:00 21.8 5 Este 14 Este 0 1013 -- 74
2020-11-04 01:00:00 22 3 Este 37 Norte 0 1013.1 -- 70
2020-11-04 00:00:00 22.3 4 Nordeste 24 Este 0 1013 -- 63
2020-11-03 23:00:00 21.3 0 Calma 8 Nordeste 0 1013.4 -- 75
2020-11-03 22:00:00 21.7 2 Nordeste 16 Nordeste 0 1013.2 -- 72
2020-11-03 21:00:00 22.7 6 Norte 25 Norte 0 1013.2 -- 59
2020-11-03 20:00:00 22 5 Este 10 Este 0 1013.2 -- 75
2020-11-03 19:00:00 22.2 3 Sur 18 Sudeste 0 1011.8 -- 73
2020-11-03 18:00:00 23.4 2 Sur 33 Noroeste 0 1012.1 -- 60
2020-11-03 17:00:00 24.2 8 Sur 33 Este 0 1012.9 -- 66
2020-11-03 16:00:00 24.8 8 Sur 30 Sudoeste 0 1013.9 -- 66
2020-11-03 15:00:00 25.5 9 Sur 18 Sur 0 1013.6 -- 63
2020-11-03 14:00:00 25.5 5 Sur 15 Sur 0 1014.3 -- 64
2020-11-03 13:00:00 25.5 6 Sur 14 Sur 0 1014.5 -- 65
2020-11-03 12:00:00 25.2 5 Sur 13 Sudeste 0 1015 -- 69
2020-11-03 11:00:00 24.3 3 Sur 13 Sur 0 1015.1 -- 71
2020-11-03 10:00:00 23.4 6 Sur 13 Sur 0 1015.5 -- 75
2020-11-03 09:00:00 21.8 3 Sudeste 13 Este 0 1015.1 -- 77
2020-11-03 08:00:00 20.6 6 Este 14 Este 0 1014 -- 79
2020-11-03 07:00:00 20.6 6 Sudeste 13 Sudeste 0 1013.3 -- 80
2020-11-03 06:00:00 20.9 5 Este 15 Sudeste 0 1013.2 -- 78
2020-11-03 05:00:00 21.1 6 Este 28 Noroeste 0 1013.4 -- 73
2020-11-03 04:00:00 21.5 3 Nordeste 37 Norte 0 1013.3 -- 70
2020-11-03 03:00:00 21.3 3 Norte 16 Noroeste 0 1013.8 -- 71
2020-11-03 02:00:00 21.3 5 Norte 26 Noroeste 0 1014.1 -- 70
2020-11-03 01:00:00 21.2 9 Norte 18 Noroeste 0 1014.2 -- 83
2020-11-03 00:00:00 21.6 8 Nordeste 15 Nordeste 0 1014.5 -- 82
2020-11-02 23:00:00 21.8 4 Nordeste 9 Norte 0 1015 -- 81
2020-11-02 22:00:00 21.9 0 Calma 6 Sudeste 0 1015 -- 82
2020-11-02 21:00:00 22 0 Calma 5 Nordeste 0 1014.8 -- 78
2020-11-02 20:00:00 22.5 0 Calma 2 Sudeste 0 1014.1 -- 76
2020-11-02 19:00:00 23 0 Calma 6 Sudoeste 0 1013.5 -- 74
2020-11-02 18:00:00 23.6 4 Sur 11 Sur 0 1013 -- 70
2020-11-02 17:00:00 24.5 6 Sur 16 Sur 0 1013 -- 71
2020-11-02 16:00:00 25.7 7 Sur 21 Sur 0 1013 -- 70
2020-11-02 15:00:00 25.8 9 Sur 23 Sur 0 1012.8 -- 70
2020-11-02 14:00:00 25.2 13 Sur 26 Sur 0 1012.9 -- 69
2020-11-02 13:00:00 25.5 13 Sur 21 Sudeste 0 1013.7 -- 65
2020-11-02 12:00:00 26.1 11 Sur 21 Sur 0 1014.1 -- 65
2020-11-02 11:00:00 25.5 10 Sur 19 Sudeste 0 1014.4 -- 67
2020-11-02 10:00:00 24.5 11 Sur 19 Sur 0 1014.2 -- 70
2020-11-02 09:00:00 23 5 Sudeste 15 Sudeste 0 1013.7 -- 70
2020-11-02 08:00:00 22.2 4 Este 14 Sudeste 0 1012.8 -- 66
2020-11-02 07:00:00 22 7 Sudeste 14 Sudeste 0 1012.3 -- 67
2020-11-02 06:00:00 22.3 4 Sudeste 18 Sudeste 0 1011.8 -- 67
2020-11-02 05:00:00 22.8 5 Sudeste 18 Este 0 1011.5 -- 64
2020-11-02 04:00:00 23.2 5 Sudeste 21 Sudeste 0 1011.5 -- 63
2020-11-02 03:00:00 23.6 7 Sudeste 22 Sudeste 0 1011.7 -- 56
2020-11-02 02:00:00 26.1 3 Nordeste 23 Norte 0 1012.1 -- 32
2020-11-02 01:00:00 23.9 2 Sur 18 Norte 0 1012.4 -- 49
2020-11-02 00:00:00 24.7 0 Calma 20 Sur 0 1012.9 -- 38
2020-11-01 23:00:00 25 4 Sur 24 Sudeste 0 1013.2 -- 41
2020-11-01 22:00:00 25.4 3 Sur 21 Norte 0 1013.1 -- 34
2020-11-01 21:00:00 26.5 4 Norte 27 Norte 0 1013 -- 27
2020-11-01 20:00:00 27.6 11 Nordeste 45 Norte 0 1012.6 -- 23
2020-11-01 19:00:00 28.1 10 Norte 33 Norte 0 1012.5 -- 24
2020-11-01 18:00:00 28.5 3 Nordeste 44 Norte 0 1012.3 -- 25
2020-11-01 17:00:00 29.4 6 Este 37 Norte 0 1012.1 -- 25
2020-11-01 16:00:00 30.3 3 Este 31 Noroeste 0 1012.2 -- 24
2020-11-01 15:00:00 30.9 9 Este 39 Este 0 1011.9 -- 24
2020-11-01 14:00:00 31.3 3 Sur 12 Sur 0 1011.7 -- 30
2020-11-01 13:00:00 31.4 5 Sudoeste 20 Sur 0 1012.3 -- 30
2020-11-01 12:00:00 30.2 3 Sur 28 Este 0 1013.4 -- 33
2020-11-01 11:00:00 30.8 13 Sudeste 36 Sudeste 0 1013.6 -- 24
2020-11-01 10:00:00 29.3 7 Sudeste 37 Sudeste 0 1013.1 -- 24
2020-11-01 09:00:00 28.8 12 Sudeste 34 Sudeste 0 1012.8 -- 25
2020-11-01 08:00:00 27.7 8 Sudeste 46 Sudeste 0 1012.2 -- 26
2020-11-01 07:00:00 28.1 6 Este 44 Este 0 1011.3 -- 26
2020-11-01 06:00:00 28.2 6 Este 38 Sudeste 0 1011.3 -- 27
2020-11-01 05:00:00 23.8 6 Sur 17 Sudoeste 0 1011.1 -- 45
2020-11-01 04:00:00 24.2 5 Nordeste 15 Sudeste 0 1012.2 -- 40
2020-11-01 03:00:00 23.7 11 Sudeste 23 Nordeste 0 1012.4 -- 68
2020-11-01 02:00:00 25.8 13 Norte 27 Norte 0 1012.2 -- 38
2020-11-01 01:00:00 24.1 2 Sur 18 Este 0 1012.4 -- 41
2020-11-01 00:00:00 24.9 4 Sudoeste 26 Nordeste 0 1012.2 -- 37
2020-10-31 23:00:00 26.8 9 Norte 21 Nordeste 0 1013 -- 30
2020-10-31 22:00:00 24.4 0 Calma 23 Nordeste 0 1013.3 -- 44
2020-10-31 21:00:00 25.2 5 Nordeste 17 Sur 0 1012.6 -- 37
2020-10-31 20:00:00 23.5 3 Sudeste 12 Nordeste 0 1012.3 -- 45
2020-10-31 19:00:00 24.3 5 Sudeste 13 Este 0 1012.1 -- 46
2020-10-31 18:00:00 24.4 4 Sur 9 Sur 0 1012.2 -- 56
2020-10-31 17:00:00 25.6 3 Sudoeste 10 Sur 0 1012.3 -- 59
2020-10-31 16:00:00 26 4 Sur 13 Sur 0 1012.3 -- 60
2020-10-31 15:00:00 27 4 Sudoeste 9 Sudoeste 0 1012.4 -- 58
2020-10-31 14:00:00 26.2 2 Oeste 12 Oeste 0 1012.9 -- 56
2020-10-31 13:00:00 26.7 6 Noroeste 13 Noroeste 0 1013.3 -- 44
2020-10-31 12:00:00 25.6 8 Noroeste 13 Noroeste 0 1013.7 -- 52
2020-10-31 11:00:00 24.3 4 Noroeste 12 Noroeste 0 1014.2 -- 60
2020-10-31 10:00:00 23.3 0 Calma 5 Norte 0 1013.8 -- 61
2020-10-31 09:00:00 21.8 2 Norte 14 Este 0 1013.4 -- 67
2020-10-31 08:00:00 20.2 5 Este 10 Este 0 1012.5 -- 74
2020-10-31 07:00:00 19.9 5 Este 10 Este 0 1011.7 -- 72
2020-10-31 06:00:00 19.8 5 Este 13 Este 0 1011.3 -- 76
2020-10-31 05:00:00 19.6 6 Este 12 Este 0 1010.9 -- 82
2020-10-31 04:00:00 19.6 6 Este 12 Este 0 1011 -- 82
2020-10-31 03:00:00 19.7 5 Este 14 Este 0 1011.6 -- 78
2020-10-31 02:00:00 19.6 5 Este 13 Este 0 1011.5 -- 74
2020-10-31 01:00:00 19.7 6 Este 12 Sudeste 0 1012 -- 71
2020-10-31 00:00:00 19.8 8 Este 13 Este 0 1011.9 -- 68
2020-10-30 23:00:00 20.2 7 Este 11 Este 0 1012.7 -- 68
2020-10-30 22:00:00 20.4 5 Este 9 Este 0 1012.4 -- 69
2020-10-30 21:00:00 20.9 5 Este 8 Este 0 1012 -- 71
2020-10-30 20:00:00 21 0 Calma 2 Norte 0 1011.6 -- 75
2020-10-30 19:00:00 21.2 0 Calma 6 Sur 0 1011.2 -- 72
2020-10-30 18:00:00 22.7 3 Sur 8 Oeste 0 1010.5 -- 67
2020-10-30 17:00:00 23.5 3 Sudoeste 10 Sudoeste 0 1010.5 -- 63
2020-10-30 16:00:00 24 4 Oeste 11 Oeste 0 1010.5 -- 62
2020-10-30 15:00:00 24.8 3 Oeste 10 Sudoeste 0 1010.5 -- 61
2020-10-30 14:00:00 24.6 3 Sudoeste 12 Sudoeste 0 1011.1 -- 61
2020-10-30 13:00:00 24.3 5 Sur 11 Sur 0 1011.7 -- 61
2020-10-30 12:00:00 24.1 6 Sudoeste 11 Sudoeste 0 1012.3 -- 62
2020-10-30 11:00:00 23.4 5 Sudoeste 10 Sudoeste 0 1012.6 -- 63
2020-10-30 10:00:00 22.1 4 Sudoeste 8 Este 0 1012.6 -- 65
2020-10-30 09:00:00 20.5 5 Este 13 Este 0 1012.3 -- 66
2020-10-30 08:00:00 19.4 9 Este -- -- -- 1011.7 -- 68
2020-10-30 07:00:00 19.4 8 Este 13 Este 0 1011.3 -- 68
2020-10-30 06:00:00 19.2 6 Este 14 Este 0 1011.2 -- 68
2020-10-30 05:00:00 19.3 8 Este 14 Este 0 1011.3 -- 68
2020-10-30 04:00:00 19.5 7 Este 15 Este 0 1011.1 -- 67
2020-10-30 03:00:00 19.3 10 Este 17 Este 0 1011.2 -- 69
2020-10-30 02:00:00 19.6 9 Este 14 Este 0 1011.6 -- 70
2020-10-30 01:00:00 20 8 Este 13 Este 0 1012 -- 72
2020-10-30 00:00:00 19.7 9 Este 14 Este 0 1012.1 -- 71
2020-10-29 23:00:00 20 6 Este 13 Este 0 1012.3 -- 69
2020-10-29 22:00:00 20.3 10 Este 17 Este 0 1012.3 -- 66
2020-10-29 21:00:00 21 6 Este 11 Este 0 1012.2 -- 69
2020-10-29 20:00:00 21.2 5 Sudeste 11 Sudeste 0 1011.9 -- 69
2020-10-29 19:00:00 21.3 4 Sudeste 9 Sur 0 1011.6 -- 68
2020-10-29 18:00:00 22.3 3 Sur 7 Sudoeste 0 1011.3 -- 67
2020-10-29 17:00:00 22.9 3 Sudoeste 10 Sudoeste 0 1011.2 -- 64
2020-10-29 16:00:00 23.9 5 Oeste 11 Oeste 0 1011.3 -- 64
2020-10-29 15:00:00 23.7 4 Oeste 10 Noroeste 0 1011.5 -- 64
2020-10-29 14:00:00 23.3 0 Calma 10 Sudoeste 0 1011.9 -- 65
2020-10-29 13:00:00 23.8 5 Sur 13 Sur 0 1012.7 -- 65
2020-10-29 12:00:00 22.9 5 Sur 10 Sur 0 1013.3 -- 68
2020-10-29 11:00:00 22.4 3 Sudeste 10 Sur 0 1014 -- 69
2020-10-29 10:00:00 21.7 0 Calma 3 Norte 0 1013.9 -- 68
2020-10-29 09:00:00 21.4 0 Calma 9 Este 0 1013.4 -- 65
2020-10-29 08:00:00 20.6 5 Este 13 Este 0 1012.9 -- 63
2020-10-29 07:00:00 20 8 Este 15 Este 0 1012.6 -- 63
2020-10-29 06:00:00 20.5 8 Este 14 Este 0 1012.4 -- 63
2020-10-29 05:00:00 20.5 6 Este 12 Este 0 1012.2 -- 64
2020-10-29 04:00:00 20.5 6 Este 13 Nordeste 0 1012.4 -- 63
2020-10-29 03:00:00 20.3 5 Este 12 Este 0 1012.6 -- 66
2020-10-29 02:00:00 20.5 6 Este 12 Este 0 1012.9 -- 64
2020-10-29 01:00:00 20 8 Este 14 Este 0 1013.1 -- 66
2020-10-29 00:00:00 20.2 0 Calma 16 Este 0 1013.4 -- 67
2020-10-28 23:00:00 20.2 6 Este 14 Este 0 1013.9 -- 66
2020-10-28 22:00:00 20.6 9 Este 18 Norte 0 1013.9 -- 65
2020-10-28 21:00:00 21.4 5 Norte 21 Norte 0 1013.5 -- 63
2020-10-28 20:00:00 21.4 6 Sudoeste 13 Sudoeste 0 1012.8 -- 65
2020-10-28 19:00:00 21.4 0 Calma 7 Sudoeste 0 1012.9 -- 65
2020-10-28 18:00:00 22.7 3 Sur 12 Sur 0 1012.2 -- 61
2020-10-28 17:00:00 23.8 6 Sur 12 Oeste 0 1012.2 -- 58
2020-10-28 16:00:00 24.1 4 Oeste 10 Noroeste 0 1012.2 -- 58
2020-10-28 15:00:00 23.2 0 Calma 8 Noroeste 0 1012.8 -- 59
2020-10-28 14:00:00 24.2 3 Sudoeste 10 Oeste 0 1013.6 -- 59
2020-10-28 13:00:00 24.4 4 Oeste 10 Oeste 0 1014 -- 58
2020-10-28 12:00:00 23.6 5 Sudoeste 10 Sudoeste 0 1014.4 -- 61
2020-10-28 11:00:00 23.2 3 Sur 8 Sudeste 0 1014.7 -- 64
2020-10-28 10:00:00 21.8 4 Sur 8 Sudeste 0 1014.8 -- 67
2020-10-28 09:00:00 20.5 3 Este 13 Este 0 1014.1 -- 65
2020-10-28 08:00:00 19.7 8 Este 17 Nordeste 0 1013.4 -- 64
2020-10-28 07:00:00 19.9 11 Nordeste 19 Este 0 1012.7 -- 63
2020-10-28 06:00:00 20.1 10 Este 19 Nordeste 0 1012.1 -- 60
2020-10-28 05:00:00 20.7 7 Este 16 Este 0 1012.4 -- 59
2020-10-28 04:00:00 20.2 9 Este 14 Este 0 1012.4 -- 62
2020-10-28 03:00:00 20.6 8 Este 14 Este 0 1012.7 -- 61
2020-10-28 02:00:00 20.8 9 Este 18 Este 0 1013 -- 60
2020-10-28 01:00:00 21.5 6 Este 19 Este 0 1013.7 -- 60
2020-10-28 00:00:00 21.3 3 Este 17 Este 0 1014.1 -- 65
2020-10-27 23:00:00 21.4 0 Calma 8 Nordeste 0 1014.4 -- 67
2020-10-27 22:00:00 21.8 0 Calma 5 Este 0 1014.4 -- 67
2020-10-27 21:00:00 22 3 Este 6 Nordeste 0 1014 -- 67
2020-10-27 20:00:00 22.2 0 Calma 13 Sur 0 1013.4 -- 70
2020-10-27 19:00:00 22.5 7 Sur 16 Sur 0 1012.8 -- 71
2020-10-27 18:00:00 23.6 5 Sudoeste 13 Sudoeste 0 1012.2 -- 68
2020-10-27 17:00:00 23.7 3 Oeste 14 Noroeste 0 1012.2 -- 68
2020-10-27 16:00:00 24.2 6 Noroeste 15 Noroeste 0 1012.1 -- 67
2020-10-27 15:00:00 24.5 6 Noroeste 13 Oeste 0 1012.5 -- 65
2020-10-27 14:00:00 24.9 0 Calma 12 Sudoeste 0 1012.9 -- 63
2020-10-27 13:00:00 24.8 5 Sur 14 Sur 0 1013.9 -- 65
2020-10-27 12:00:00 24.1 5 Sur 13 Sudoeste 0 1014.6 -- 68
2020-10-27 11:00:00 22.9 4 Noroeste 10 Oeste 0 1014.9 -- 68
2020-10-27 10:00:00 22.1 2 Norte 12 Norte 0 1015.2 -- 71
2020-10-27 09:00:00 20.6 6 Nordeste 11 Este 0 1014.9 -- 69
2020-10-27 08:00:00 19.1 8 Este 13 Este 0 1013.9 -- 73
2020-10-27 07:00:00 19.2 7 Este 14 Este 0 1013.7 -- 71
2020-10-27 06:00:00 19.2 10 Este 16 Este 0 1013.4 -- 72
2020-10-27 05:00:00 19.8 9 Nordeste 15 Este 0 1013.6 -- 74
2020-10-27 04:00:00 19.5 12 Nordeste 16 Este 0 1013.7 -- 67
2020-10-27 03:00:00 19.4 7 Este 13 Este 0 1014 -- 74
2020-10-27 02:00:00 19.6 6 Este 12 Este 0 1014.4 -- 73
2020-10-27 01:00:00 19.8 8 Este 12 Este 0 1014.7 -- 74
2020-10-27 00:00:00 20.1 4 Este 8 Este 0 1014.9 -- 74
2020-10-26 23:00:00 20.4 5 Nordeste 8 Este 0 1015.1 -- 72
2020-10-26 22:00:00 20.8 0 Calma 5 Sudeste 0 1015.2 -- 73
2020-10-26 21:00:00 21 0 Calma 6 Sur 0 1015.1 -- 74
2020-10-26 20:00:00 21.1 0 Calma 4 Norte 0 1014.5 -- 71
2020-10-26 19:00:00 21.9 0 Calma 10 Oeste 0 1014.4 -- 69
2020-10-26 18:00:00 23 3 Noroeste 12 Sudoeste 0 1013.9 -- 66
2020-10-26 17:00:00 23.7 6 Sudoeste 14 Sudoeste 0 1013.5 -- 63
2020-10-26 16:00:00 24.5 6 Sudoeste 13 Sudoeste 0 1013.6 -- 60
2020-10-26 15:00:00 24.9 4 Sudoeste 12 Oeste 0 1013.6 -- 61
2020-10-26 14:00:00 24.5 4 Oeste 13 Sudoeste 0 1014.4 -- 61
2020-10-26 13:00:00 24.7 3 Sudoeste 12 Sudeste 0 1014.9 -- 64
2020-10-26 12:00:00 24.6 5 Sudoeste 12 Sur 0 1015.7 -- 64
2020-10-26 11:00:00 23.4 4 Sudoeste 9 Sur 0 1016.1 -- 68
2020-10-26 10:00:00 22.1 2 Oeste 6 Este 0 1015.9 -- 71
2020-10-26 09:00:00 20.9 4 Nordeste 14 Este 0 1015.6 -- 74
2020-10-26 08:00:00 19.5 8 Este 13 Este 0 1015 -- 75
2020-10-26 07:00:00 19.2 7 Este 13 Este 0 1014.7 -- 75
2020-10-26 06:00:00 19.5 6 Este 12 Este 0 1014.4 -- 75
2020-10-26 05:00:00 19.5 5 Este 12 Este 0 1014.6 -- 75
2020-10-26 04:00:00 19.6 6 Este 8 Este 0 1014.5 -- 75
2020-10-26 03:00:00 19.9 5 Este 12 Este 0 1014.5 -- 73
2020-10-26 02:00:00 20.3 5 Este 12 Este 0 1015.1 -- 71
2020-10-26 01:00:00 20.8 0 Calma 6 Nordeste 0 1015.8 -- 71
2020-10-26 00:00:00 21.5 3 Nordeste 7 Nordeste 0 1016.4 -- 69